Time,TemperatureF,DewpointF,PressureIn,WindDirection,WindDirectionDegrees,WindSpeedMPH,WindSpeedGustMPH,Humidity,HourlyPrecipIn,Conditions,Clouds,dailyrainin,SolarRadiationWatts/m^2,SoftwareType,DateUTC
2013-06-18 00:01:00,61.5,60.0,29.91,SSW,202,0.0,0.0,96,0.00,,,0.00,0,weatherlink.com 1.10,2013-06-18 04:01:00,
2013-06-18 00:17:00,61.5,60.0,29.90,SSW,202,0.0,0.0,96,0.00,,,0.00,0,weatherlink.com 1.10,2013-06-18 04:17:00,
2013-06-18 00:32:00,61.1,60.0,29.91,SSW,202,0.0,1.0,96,0.00,,,0.00,0,weatherlink.com 1.10,2013-06-18 04:32:00,
2013-06-18 00:47:00,60.9,60.0,29.90,SSW,202,0.0,0.0,96,0.00,,,0.00,0,weatherlink.com 1.10,2013-06-18 04:47:00,
2013-06-18 01:02:00,60.7,60.0,29.90,SSW,202,0.0,1.0,96,0.00,,,0.00,0,weatherlink.com 1.10,2013-06-18 05:02:00,
2013-06-18 01:17:00,60.5,59.0,29.89,SSW,202,0.0,0.0,96,0.00,,,0.00,0,weatherlink.com 1.10,2013-06-18 05:17:00,
2013-06-18 01:31:00,60.5,60.0,29.89,SSW,202,0.0,0.0,97,0.00,,,0.00,0,weatherlink.com 1.10,2013-06-18 05:31:00,
2013-06-18 01:46:00,60.1,59.0,29.89,SSW,202,0.0,0.0,97,0.00,,,0.00,0,weatherlink.com 1.10,2013-06-18 05:46:00,
2013-06-18 02:01:00,60.0,59.0,29.90,SSW,202,0.0,1.0,97,0.00,,,0.00,0,weatherlink.com 1.10,2013-06-18 06:01:00,
2013-06-18 02:16:00,59.8,59.0,29.90,SSW,202,0.0,1.0,97,0.00,,,0.00,0,weatherlink.com 1.10,2013-06-18 06:16:00,
2013-06-18 02:31:00,59.8,59.0,29.89,SSW,202,0.0,0.0,97,0.00,,,0.00,0,weatherlink.com 1.10,2013-06-18 06:31:00,
2013-06-18 02:46:00,59.6,59.0,29.89,SSW,202,0.0,0.0,97,0.00,,,0.00,0,weatherlink.com 1.10,2013-06-18 06:46:00,
2013-06-18 03:01:00,59.3,59.0,29.89,SSW,202,0.0,1.0,97,0.00,,,0.00,0,weatherlink.com 1.10,2013-06-18 07:01:00,
2013-06-18 03:16:00,59.1,58.0,29.89,SSW,202,0.0,0.0,97,0.00,,,0.00,0,weatherlink.com 1.10,2013-06-18 07:16:00,
2013-06-18 03:31:00,59.1,58.0,29.89,SSW,202,0.0,1.0,97,0.00,,,0.00,0,weatherlink.com 1.10,2013-06-18 07:31:00,
2013-06-18 03:46:00,59.1,58.0,29.88,SSW,202,0.0,0.0,97,0.00,,,0.00,0,weatherlink.com 1.10,2013-06-18 07:46:00,
2013-06-18 04:01:00,58.9,58.0,29.88,SSW,202,0.0,0.0,97,0.00,,,0.00,0,weatherlink.com 1.10,2013-06-18 08:01:00,
2013-06-18 04:16:00,58.6,58.0,29.88,SSW,202,0.0,0.0,97,0.00,,,0.00,0,weatherlink.com 1.10,2013-06-18 08:16:00,
2013-06-18 04:31:00,58.6,58.0,29.88,SSW,202,3.0,3.0,97,0.00,,,0.00,0,weatherlink.com 1.10,2013-06-18 08:31:00,
2013-06-18 04:46:00,59.3,59.0,29.88,SSW,202,0.0,0.0,97,0.00,,,0.00,0,weatherlink.com 1.10,2013-06-18 08:46:00,
2013-06-18 05:01:00,59.2,58.0,29.88,SSW,202,0.0,0.0,97,0.00,,,0.00,0,weatherlink.com 1.10,2013-06-18 09:01:00,
2013-06-18 05:16:00,58.9,58.0,29.88,SSW,202,0.0,1.0,97,0.00,,,0.00,0,weatherlink.com 1.10,2013-06-18 09:16:00,
2013-06-18 05:31:00,58.7,58.0,29.89,SSW,202,0.0,0.0,97,0.00,,,0.00,5,weatherlink.com 1.10,2013-06-18 09:31:00,
2013-06-18 05:47:00,58.4,58.0,29.89,SSW,202,0.0,0.0,97,0.00,,,0.00,12,weatherlink.com 1.10,2013-06-18 09:47:00,
2013-06-18 06:02:00,58.4,58.0,29.89,SSW,202,0.0,1.0,97,0.00,,,0.00,30,weatherlink.com 1.10,2013-06-18 10:02:00,
2013-06-18 06:17:00,58.5,58.0,29.89,SSW,202,0.0,0.0,98,0.00,,,0.00,42,weatherlink.com 1.10,2013-06-18 10:17:00,
2013-06-18 06:33:00,59.2,59.0,29.89,SSW,202,0.0,1.0,98,0.00,,,0.00,46,weatherlink.com 1.10,2013-06-18 10:33:00,
2013-06-18 06:47:00,60.2,60.0,29.89,SSW,202,0.0,0.0,98,0.00,,,0.00,49,weatherlink.com 1.10,2013-06-18 10:47:00,
2013-06-18 07:02:00,60.8,60.0,29.89,SSW,202,0.0,1.0,97,0.00,,,0.00,49,weatherlink.com 1.10,2013-06-18 11:02:00,
2013-06-18 07:17:00,62.1,61.0,29.90,SSW,202,0.0,0.0,97,0.00,,,0.00,70,weatherlink.com 1.10,2013-06-18 11:17:00,
2013-06-18 07:33:00,63.4,62.0,29.90,SSW,202,0.0,0.0,96,0.00,,,0.00,54,weatherlink.com 1.10,2013-06-18 11:33:00,
2013-06-18 07:48:00,64.5,63.0,29.90,SSW,202,0.0,1.0,94,0.00,,,0.00,65,weatherlink.com 1.10,2013-06-18 11:48:00,
2013-06-18 08:03:00,65.3,63.0,29.90,SSW,202,0.0,1.0,92,0.00,,,0.00,65,weatherlink.com 1.10,2013-06-18 12:03:00,
2013-06-18 08:18:00,66.7,64.0,29.90,SSW,202,1.0,1.0,90,0.00,,,0.00,70,weatherlink.com 1.10,2013-06-18 12:18:00,
2013-06-18 08:34:00,67.6,64.0,29.90,SSW,202,0.0,2.0,89,0.00,,,0.00,450,weatherlink.com 1.10,2013-06-18 12:34:00,
2013-06-18 08:49:00,68.7,65.0,29.90,SSW,202,0.0,1.0,87,0.00,,,0.00,431,weatherlink.com 1.10,2013-06-18 12:49:00,
2013-06-18 09:05:00,69.8,66.0,29.90,SSW,202,0.0,1.0,86,0.00,,,0.00,578,weatherlink.com 1.10,2013-06-18 13:05:00,
2013-06-18 09:20:00,71.1,66.0,29.90,SSW,202,0.0,2.0,83,0.00,,,0.00,645,weatherlink.com 1.10,2013-06-18 13:20:00,
2013-06-18 09:35:00,71.7,66.0,29.90,SSW,202,0.0,1.0,82,0.00,,,0.00,671,weatherlink.com 1.10,2013-06-18 13:35:00,
2013-06-18 09:49:00,71.4,66.0,29.90,SSW,202,0.0,1.0,82,0.00,,,0.00,621,weatherlink.com 1.10,2013-06-18 13:49:00,
2013-06-18 10:05:00,72.2,66.0,29.90,SSW,202,0.0,1.0,82,0.00,,,0.00,406,weatherlink.com 1.10,2013-06-18 14:05:00,
2013-06-18 10:19:00,73.9,67.0,29.89,SSW,202,0.0,1.0,78,0.00,,,0.00,489,weatherlink.com 1.10,2013-06-18 14:19:00,
2013-06-18 10:36:00,74.3,67.0,29.89,SSW,202,0.0,1.0,77,0.00,,,0.00,541,weatherlink.com 1.10,2013-06-18 14:36:00,
2013-06-18 10:50:00,74.7,67.0,29.89,SSW,202,0.0,1.0,76,0.00,,,0.00,761,weatherlink.com 1.10,2013-06-18 14:50:00,
2013-06-18 11:05:00,76.6,67.0,29.89,SSW,202,0.0,3.0,72,0.00,,,0.00,766,weatherlink.com 1.10,2013-06-18 15:05:00,
2013-06-18 11:21:00,76.6,66.0,29.89,SSW,198,1.0,3.0,70,0.00,,,0.00,849,weatherlink.com 1.10,2013-06-18 15:21:00,
2013-06-18 11:35:00,77.8,66.0,29.89,South,180,0.0,5.0,67,0.00,,,0.00,895,weatherlink.com 1.10,2013-06-18 15:35:00,
2013-06-18 11:51:00,78.2,65.0,29.88,South,178,3.0,3.0,63,0.00,,,0.00,780,weatherlink.com 1.10,2013-06-18 15:51:00,
2013-06-18 12:05:00,77.8,65.0,29.88,South,179,0.0,2.0,64,0.00,,,0.00,684,weatherlink.com 1.10,2013-06-18 16:05:00,
2013-06-18 12:21:00,77.8,66.0,29.88,SSE,167,1.0,4.0,67,0.00,,,0.00,545,weatherlink.com 1.10,2013-06-18 16:21:00,
2013-06-18 12:37:00,77.5,67.0,29.88,SSE,165,2.0,4.0,70,0.00,,,0.00,763,weatherlink.com 1.10,2013-06-18 16:37:00,
2013-06-18 12:52:00,76.3,67.0,29.86,SE,142,1.0,5.0,74,0.00,,,0.00,786,weatherlink.com 1.10,2013-06-18 16:52:00,
2013-06-18 13:07:00,76.5,68.0,29.86,SSE,151,0.0,2.0,76,0.00,,,0.00,608,weatherlink.com 1.10,2013-06-18 17:07:00,
2013-06-18 13:21:00,76.4,68.0,29.86,South,182,2.0,8.0,75,0.00,,,0.00,640,weatherlink.com 1.10,2013-06-18 17:21:00,
2013-06-18 13:36:00,77.8,69.0,29.86,SSE,159,2.0,7.0,75,0.00,,,0.00,986,weatherlink.com 1.10,2013-06-18 17:36:00,
2013-06-18 13:52:00,76.9,68.0,29.85,SSW,205,0.0,4.0,75,0.00,,,0.00,533,weatherlink.com 1.10,2013-06-18 17:52:00,
2013-06-18 14:07:00,76.2,69.0,29.84,South,191,0.0,4.0,77,0.00,,,0.00,657,weatherlink.com 1.10,2013-06-18 18:07:00,
2013-06-18 14:23:00,75.5,67.0,29.83,SSW,207,0.0,2.0,76,0.00,,,0.00,432,weatherlink.com 1.10,2013-06-18 18:23:00,
2013-06-18 14:38:00,75.3,68.0,29.82,SSW,207,1.0,4.0,78,0.00,,,0.00,422,weatherlink.com 1.10,2013-06-18 18:38:00,
2013-06-18 14:52:00,75.0,68.0,29.82,SSW,207,0.0,2.0,78,0.00,,,0.00,475,weatherlink.com 1.10,2013-06-18 18:52:00,
2013-06-18 15:08:00,74.6,68.0,29.83,SSW,206,1.0,7.0,79,0.00,,,0.00,438,weatherlink.com 1.10,2013-06-18 19:08:00,
2013-06-18 15:22:00,72.9,67.0,29.83,South,177,3.0,6.0,81,0.00,,,0.00,311,weatherlink.com 1.10,2013-06-18 19:22:00,
2013-06-18 15:38:00,71.5,67.0,29.84,South,178,0.0,6.0,84,0.00,,,0.00,294,weatherlink.com 1.10,2013-06-18 19:38:00,
2013-06-18 15:53:00,70.8,66.0,29.84,South,191,0.0,6.0,85,0.00,,,0.00,332,weatherlink.com 1.10,2013-06-18 19:53:00,
2013-06-18 16:08:00,69.9,66.0,29.85,South,182,0.0,2.0,87,0.00,,,0.00,200,weatherlink.com 1.10,2013-06-18 20:08:00,
2013-06-18 16:23:00,69.4,66.0,29.86,South,179,0.0,5.0,88,0.00,,,0.00,146,weatherlink.com 1.10,2013-06-18 20:23:00,
2013-06-18 16:39:00,69.5,66.0,29.86,South,179,0.0,5.0,88,0.00,,,0.00,130,weatherlink.com 1.10,2013-06-18 20:39:00,
2013-06-18 16:53:00,69.1,66.0,29.86,South,179,0.0,2.0,88,0.00,,,0.00,102,weatherlink.com 1.10,2013-06-18 20:53:00,
2013-06-18 17:09:00,68.9,66.0,29.87,South,179,0.0,1.0,89,0.00,,,0.00,49,weatherlink.com 1.10,2013-06-18 21:09:00,
2013-06-18 17:23:00,69.5,66.0,29.86,NE,55,0.0,1.0,88,0.00,,,0.00,90,weatherlink.com 1.10,2013-06-18 21:23:00,
2013-06-18 17:39:00,69.7,66.0,29.86,NE,55,0.0,0.0,88,0.00,,,0.00,56,weatherlink.com 1.10,2013-06-18 21:39:00,
2013-06-18 17:54:00,69.6,66.0,29.86,NNE,30,0.0,3.0,89,0.00,,,0.00,30,weatherlink.com 1.10,2013-06-18 21:54:00,
2013-06-18 18:09:00,68.1,63.0,29.86,North,360,3.0,6.0,84,0.00,,,0.00,23,weatherlink.com 1.10,2013-06-18 22:09:00,
2013-06-18 18:26:00,66.9,63.0,29.86,North,10,0.0,1.0,87,0.01,,,0.01,16,weatherlink.com 1.10,2013-06-18 22:26:00,
2013-06-18 18:40:00,66.3,63.0,29.86,North,10,0.0,1.0,89,0.03,,,0.03,16,weatherlink.com 1.10,2013-06-18 22:40:00,
2013-06-18 18:56:00,65.2,63.0,29.86,North,10,0.0,1.0,91,0.06,,,0.06,16,weatherlink.com 1.10,2013-06-18 22:56:00,
2013-06-18 19:10:00,64.8,63.0,29.87,North,10,0.0,0.0,93,0.07,,,0.07,14,weatherlink.com 1.10,2013-06-18 23:10:00,
2013-06-18 19:25:00,64.3,63.0,29.87,North,10,0.0,3.0,94,0.07,,,0.08,7,weatherlink.com 1.10,2013-06-18 23:25:00,
2013-06-18 19:40:00,64.1,63.0,29.86,North,9,0.0,1.0,95,0.04,,,0.08,5,weatherlink.com 1.10,2013-06-18 23:40:00,
2013-06-18 19:55:00,64.0,63.0,29.86,North,10,0.0,1.0,95,0.04,,,0.10,0,weatherlink.com 1.10,2013-06-18 23:55:00,
2013-06-18 20:11:00,63.9,63.0,29.87,North,10,0.0,2.0,95,0.03,,,0.10,0,weatherlink.com 1.10,2013-06-19 00:11:00,
2013-06-18 20:25:00,63.9,63.0,29.87,North,10,0.0,0.0,95,0.02,,,0.10,0,weatherlink.com 1.10,2013-06-19 00:25:00,
2013-06-18 20:40:00,63.7,63.0,29.88,NE,44,0.0,4.0,96,0.03,,,0.11,0,weatherlink.com 1.10,2013-06-19 00:40:00,
2013-06-18 20:55:00,63.6,63.0,29.88,NE,41,0.0,3.0,96,0.02,,,0.12,0,weatherlink.com 1.10,2013-06-19 00:55:00,
2013-06-18 21:11:00,63.3,62.0,29.89,NNE,16,1.0,2.0,96,0.03,,,0.13,0,weatherlink.com 1.10,2013-06-19 01:11:00,
2013-06-18 21:25:00,62.9,62.0,29.90,North,5,0.0,4.0,96,0.04,,,0.14,0,weatherlink.com 1.10,2013-06-19 01:25:00,
2013-06-18 21:40:00,62.2,61.0,29.89,NNE,18,2.0,6.0,95,0.04,,,0.15,0,weatherlink.com 1.10,2013-06-19 01:40:00,
2013-06-18 21:56:00,61.9,61.0,29.89,NNE,15,0.0,3.0,95,0.03,,,0.15,0,weatherlink.com 1.10,2013-06-19 01:56:00,
2013-06-18 22:12:00,61.6,60.0,29.89,NNE,26,3.0,5.0,95,0.02,,,0.15,0,weatherlink.com 1.10,2013-06-19 02:12:00,
2013-06-18 22:27:00,61.0,59.0,29.89,NE,36,3.0,8.0,94,0.02,,,0.16,0,weatherlink.com 1.10,2013-06-19 02:27:00,
2013-06-18 22:41:00,60.5,59.0,29.88,NNE,26,0.0,5.0,94,0.01,,,0.16,0,weatherlink.com 1.10,2013-06-19 02:41:00,
2013-06-18 22:57:00,60.2,59.0,29.88,NNE,22,0.0,3.0,94,0.02,,,0.17,0,weatherlink.com 1.10,2013-06-19 02:57:00,
2013-06-18 23:12:00,60.1,59.0,29.88,NNE,22,1.0,4.0,95,0.03,,,0.18,0,weatherlink.com 1.10,2013-06-19 03:12:00,
2013-06-18 23:27:00,60.3,59.0,29.88,North,9,0.0,5.0,95,0.03,,,0.19,0,weatherlink.com 1.10,2013-06-19 03:27:00,
2013-06-18 23:42:00,60.4,59.0,29.88,North,355,0.0,6.0,95,0.04,,,0.20,0,weatherlink.com 1.10,2013-06-19 03:42:00,
2013-06-18 23:57:00,60.5,59.0,29.87,North,360,1.0,4.0,96,0.03,,,0.00,0,weatherlink.com 1.10,2013-06-19 03:57:00,